Regional Weather Roundup
Issued by NWS

Home | Current Version | Previous Version | Text Only | Print | Product List | Glossary On
Versions: 1 2 3 4 5 6 7 8 9 10 11 12 13 14 15 16 17 18 19 20 21 22 23 24 25 26 27 28 29 30 31 32 33 34 35 36 37 38 39 40 41 42 43 44 45 46 47 48 49 50
000
ASUS43 KLOT 270510
RWRIL

ILLINOIS REGIONAL WEATHER ROUNDUP
NATIONAL WEATHER SERVICE CHICAGO/ROMEOVILLE IL
1100 PM CST MON JAN 26 2015

NOTE: "FAIR" INDICATES FEW OR NO CLOUDS BELOW 12,000 FEET WITH NO
SIGNIFICANT WEATHER AND/OR OBSTRUCTIONS TO VISIBILITY.

* THESE STATIONS ARE NOT UNDER NWS QUALITY CONTROL. THEY ALSO MAY NOT
  REPORT WEATHER SUCH AS PRECIPITATION OR FOG.

ILZ001-002-007-009-015-016-024-270600-
NORTHWEST ILLINOIS

CITY           SKY/WX    TMP DP  RH WIND       PRES   REMARKS
MOLINE         CLOUDY    32  29  88 CALM      29.89R FOG
STERLING*      CLOUDY    28  27  93 CALM      29.89R VSB 1
SAVANNA*       CLOUDY    28  27  96 CALM      29.90R FOG
$$

ILZ003-004-008-010-011-017-018-270600-
NORTH CENTRAL ILLINOIS

CITY           SKY/WX    TMP DP  RH WIND       PRES   REMARKS
ROCKFORD       LGT SNOW  27  24  89 CALM      29.91R FOG
FREEPORT*      CLOUDY    26  25  96 CALM      29.91R FOG
ROCHELLE*      LGT SNOW  27  27  99 CALM      29.89R
DE KALB*       CLOUDY    26  25  97 SE5       29.89R FOG     WCI  20
PERU*          FOG       30  29  97 CALM      29.89S VSB 3/4
$$

ILZ005-006-012>014-019>023-270600-
NORTHEAST ILLINOIS

CITY           SKY/WX    TMP DP  RH WIND       PRES   REMARKS
CHICAGO-OHARE  LGT SNOW  26  24  92 SE5       29.90S FOG     WCI  20
CHICAGO-MIDWAY LGT SNOW  28  25  88 SE5       29.92R FOG     WCI  23
AURORA         CLOUDY    28  24  85 E5        29.90R FOG     WCI  23
LANSING*       LGT SNOW  26  25  96 SE5       29.92R WCI  21
JOLIET*        LGT SNOW  27  26  96 SE5       29.91R WCI  22
WAUKEGAN       CLOUDY    26  24  92 CALM      29.90S
DUPAGE AIRPORT LGT SNOW  27  24  89 SE3       29.89S FOG
KANKAKEE*      MIX PCPN  28  27  94 SE5       29.91S WCI  23
WHEELING       CLOUDY    26  24  92 SE3       29.92S FOG
MORRIS*        MIX PCPN  28  28 100 SE3       29.89S
ROMEOVILLE*    MIX PCPN  27  27  99 SE5       29.90S WCI  22
NORTHERLY ISL    N/A     26  24  92 SE2         N/A
$$

LMZ740>746-270600-
SOUTHERN LAKE MICHIGAN

STATION/POSITION SKY/WX   TEMP    WIND        PRES    VSBY  WAVE
                          AIR SEA DIR/SP/G                  HT/PER
                          (F)     (DEG/KT/KT) (MB)    (MI)  (FT/S)
WAUKEGAN HARBOR            27      CALM  /  6   N/A
HARRISON CRIB              26     160/  7/  9   N/A
BURNHAM HARBOR             26     130/  3/  7   N/A
CALUMET HARBOR             26     120/  2/  3   N/A
MICHIGAN CITY              23     120/  8/  9   N/A
$$

ILZ025>027-034>036-040-047-049-050-058-095>099-270600-
WEST-CENTRAL ILLINOIS

CITY           SKY/WX    TMP DP  RH WIND       PRES   REMARKS
QUINCY         CLOUDY    39  34  82 NW9       29.91R WCI  33
GALESBURG*     CLOUDY    33  32  95 W5        29.89R WCI  29
MACOMB*        CLOUDY    36  34  93 NW9       29.92R WCI  29
JACKSONVILLE*  CLOUDY    36  32  87 SW5       29.90R WCI  32
PITTSFIELD*    CLOUDY    41  35  78 NW7       29.92R
$$

ILZ028>032-037-038-041>044-048-051>054-059>061-270600-
CENTRAL ILLINOIS

CITY           SKY/WX    TMP DP  RH WIND       PRES   REMARKS
PONTIAC        CLOUDY    31  31  99 CALM      29.90R FOG
BLOOMINGTON    CLOUDY    30  30 100 SW3       29.89R FOG
DECATUR        CLOUDY    31  31 100 SW6       29.89S FOG     WCI  25
PEORIA         CLOUDY    32  30  92 CALM      29.89S FOG
LACON*         CLOUDY    29  28  96 CALM      29.88S FOG
LINCOLN*       CLOUDY    33  31  95 CALM      29.90S FOG
SPRINGFIELD    CLOUDY    33  30  88 SW3       29.89S
TAYLORVILLE    CLOUDY    32  30  93 SW6       29.89S WCI  26
$$

ILZ033-039-045-046-055>057-062-063-270600-
EAST-CENTRAL ILLINOIS

CITY           SKY/WX    TMP DP  RH WIND       PRES   REMARKS
CHAMPAIGN      CLOUDY    30  28  92 S5        29.89S FOG     WCI  25
DANVILLE*      CLOUDY    28  27  98 S3        29.88S FOG
RANTOUL*       CLOUDY    31  30  96 S6        29.89S FOG     WCI  25
MATTOON        CLOUDY    29  27  92 S6        29.88F FOG     WCI  23
PARIS*         CLOUDY    28  28  99 NE3       29.92S
$$

ILZ079-100>102-270600-
SOUTHWEST ILLINOIS

CITY           SKY/WX    TMP DP  RH WIND       PRES   REMARKS
ALTON          CLOUDY    35  31  85 SW3       29.91S
BELLEVILLE     CLOUDY    34  32  90 VRB3      29.90F
CAHOKIA*       CLOUDY    35  30  82 CALM      29.91F
SPARTA*        CLOUDY    35  31  85 SW5       29.91F WCI  31
$$

ILZ064>066-069>071-074>076-080>082-084>086-088>090-092>094-270600-
SOUTH-CENTRAL ILLINOIS

CITY           SKY/WX    TMP DP  RH WIND       PRES   REMARKS
CARBONDALE     CLOUDY    35  30  82 S7        29.91F WCI  29
CAIRO*         CLOUDY    34  33  96 CALM      29.94F
EFFINGHAM*     CLOUDY    31  28  89 S3        29.91F FOG
MARION         CLOUDY    37  32  81 SW5       29.92S WCI  34
MT. VERNON     CLOUDY    34  27  75 CALM      29.93R
CENTRALIA*     CLOUDY    33  29  86 CALM      29.91F
SALEM*         CLOUDY    34  31  89 S3        29.91F
METROPOLIS*    CLOUDY    37  33  84 CALM      29.92F
$$

ILZ067-068-072-073-078-083-087-091-270600-
SOUTHEAST ILLINOIS

CITY           SKY/WX    TMP DP  RH WIND       PRES   REMARKS
LAWRENCEVILLE  CLOUDY    29  28  96 SE6       29.93F FOG     WCI  23
FLORA*         CLOUDY    31  30  97 S3        29.92F FOG
FAIRFIELD*     CLOUDY    32  30  92 S3        29.92R
HARRISBURG*    CLOUDY    33  32  96 E3        29.93S
ROBINSON*      CLOUDY    29  28  98 SE5       29.94F FOG     WCI  24
CARMI*         CLOUDY    34  32  93 SE6       29.92F FOG     WCI  29
$$

ABBREVIATIONS USED IN REMARKS
   TC - TEMPERATURE IN CELSIUS
  WCI - WIND CHILL INDEX
   HX - HEAT INDEX
  VSB - VISIBILITY
$$




USA.gov is the U.S. government's official web portal to all federal, state and local government web resources and services.